Regional Weather Roundup
Issued by NWS

Home | Current Version | Previous Version | Text Only | Print | Product List | Glossary On
Versions: 1 2 3 4 5 6 7 8 9 10 11 12 13 14 15 16 17 18 19 20 21 22 23 24 25 26 27 28 29 30 31 32 33 34 35 36 37 38 39 40 41 42 43 44 45 46 47 48 49 50
000
ASUS45 KABQ 302101
RWRNM
NEW MEXICO REGIONAL WEATHER ROUNDUP
NATIONAL WEATHER SERVICE ALBUQUERQUE NM
300 PM MDT THU MAR 30 2017

NOTE: "FAIR" MEANS FEW OR NO CLOUDS BELOW 12,000 FEET AGL WITH NO
       SIGNIFICANT WEATHER OR OBSTRUCTIONS TO VISION.

      THIS PRODUCT IS RELEASED AS TWO VERSIONS.  ONE VERSION NEAR
      THE TOP OF THE HOUR CONTAINING PRELIMINARY DATA FROM ALBUQUERQUE
      AND OTHER STATIONS.  A FINAL VERSION WITH ADDITIONAL DATA IS
      ISSUED ABOUT 10 MINUTES AFTER THE HOUR.

NMZ501-503-504-510>518-302200-
NORTHWEST PLATEAU/NORTHCENTRAL MOUNTAINS

CITY           SKY/WX    TMP DP  RH WIND       PRES   REMARKS
FARMINGTON     FAIR      66  17  15 VRB7      29.74F
LOS ALAMOS     FAIR      58  26  29 SE6G16    29.88F
SANTA FE       FAIR      63  25  23 SW14G20   29.85F
TAOS             N/A     57  28  33 SW15G21   29.85F
ANGEL FIRE     FAIR      52  27  37 SW10G18   29.91F

$$
NMZ402-403-502-505>509-302200-
WESTCENTRAL MOUNTAINS/SOUTHWEST MOUNTAINS

CITY           SKY/WX    TMP DP  RH WIND       PRES   REMARKS
GALLUP         FAIR      69  20  15 SW25G38   29.82F
GRANTS         FAIR      67  17  14 W12G23    29.87F
SILVER CITY    FAIR      71  21  15 W17G23    29.94F

$$
NMZ407-409-411-412-302200-
SOUTHERN DESERTS

CITY           SKY/WX    TMP DP  RH WIND       PRES   REMARKS
DEMING         FAIR      77  22  13 W18G24    29.88F
LAS CRUCES     FAIR      76  19  11 W23G32    29.90F
HOLLOMAN AFB   FAIR      72  22  15 S10       29.89F
ALAMOGORDO       N/A    N/A N/A N/A MISG        N/A
T OR C         FAIR      75  25  15 S15       29.82F

$$
NMZ519>523-302200-
CENTRAL VALLEYS/CENTRAL HIGHLANDS

CITY           SKY/WX    TMP DP  RH WIND       PRES   REMARKS
ALBUQUERQUE    PTSUNNY   67  23  19 S12G18    29.83F
DOUBLE EAGLE   PTSUNNY   68  28  22 MISG      29.84F
MORIARTY ARPT  FAIR      68  20  16 NW14G21   29.88F
CLINES CORNERS FAIR      62  20  19 W24G32    29.89F
BELEN          FAIR      70  25  18 S10G17    29.82F
SOCORRO        FAIR      73  23  15 S16G24    29.82F

$$
NMZ524>526-539-540-302200-
SOUTHCENTRAL MOUNTAINS

CITY           SKY/WX    TMP DP  RH WIND       PRES   REMARKS
RUIDOSO        NOT AVBL

$$
NMZ527>531-302200-
NORTHEAST HIGHLANDS/NORTHEAST PLAINS

CITY           SKY/WX    TMP DP  RH WIND       PRES   REMARKS
LAS VEGAS      FAIR      65  21  18 VRB3G16   29.81F
RATON          FAIR      64  20  18 S8G16     29.76F
CLAYTON        FAIR      70  28  21 VRB6      29.75F

$$
NMZ532>537-302200-
EASTCENTRAL PLAINS

CITY           SKY/WX    TMP DP  RH WIND       PRES   REMARKS
TUCUMCARI      FAIR      72  33  24 VRB7      29.73F
CANNON AFB     FAIR      70  33  26 W9        29.77F
CLOVIS AIRPORT FAIR      68  36  30 S5        29.78F

$$
NMZ028-029-538-302200-
SOUTHEAST PLAINS

CITY           SKY/WX    TMP DP  RH WIND       PRES   REMARKS
ROSWELL        FAIR      79  21  11 S3        29.78F
ARTESIA        FAIR      79  27  14 W8G21     29.78F
CARLSBAD       FAIR      81  18   9 W17G31    29.78F
HOBBS          SUNNY     77  23  13 SW12G20   29.80F


$$




USA.gov is the U.S. government's official web portal to all federal, state and local government web resources and services.